Location: Errazu
(43.1805°N, 1.4560°W)
Time: 07:21:03
(UTC+00:00)

Daily predictions for brighter satellites

Satellite Brightness Start Highest point End
(mag) Time Altitude Azimuth Time Altitude Azimuth Time Altitude Azimuth
Helios 1B rocket 2.9 20:12:48 10° SE 20:16:12 37° ENE 20:19:37 10° N
Meteor 2-5 Rocket 4.4 20:10:34 10° SSW 20:16:20 62° WNW 20:22:01 10° N
Meteor PRIRODA 4.0 20:15:05 10° SE 20:17:35 29° ENE 20:20:07 10° N
Helios 1A 3.9 20:16:18 10° NE 20:19:38 26° E 20:22:57 10° SSE
Cosmos 220 Rocket 4.2 20:16:02 10° NNW 20:20:16 72° WSW 20:24:29 10° SSE
Cosmos 1570 Rocket 4.1 20:18:01 10° NNW 20:23:20 89° ENE 20:28:34 10° SSE
Terra 2.3 20:19:38 10° SE 20:24:06 44° ENE 20:28:35 10° N
NOSS 3-4 (A) 4.4 20:18:42 10° NNW 20:25:16 49° NE 20:32:56 10° ESE
NOSS 3-4 (C) 4.4 20:18:45 10° NNW 20:25:18 49° NE 20:32:55 10° ESE
Cosmos 1634 Rocket 4.0 20:23:22 10° N 20:29:32 70° E 20:35:40 10° SSE
Cosmos 1606 2.9 20:27:08 10° NNW 20:30:08 53° W 20:33:07 10° S
Spot 2 Rocket 4.3 20:27:25 10° SE 20:32:04 37° ENE 20:36:42 10° N
Cosmos 1486 Rocket 4.0 20:29:18 10° SSW 20:34:33 82° ESE 20:39:52 10° NNE
USA 186 3.2 20:33:00 10° SSW 20:35:26 29° W 20:37:53 10° NNW
SPOT 5 3.6 20:31:27 10° S 20:36:38 63° W 20:41:55 10° NNW
NOSS 5 (C) 4.4 20:33:47 10° NNW 20:37:02 64° NE 20:39:49 14° SE
Cosmos 1674 Rocket 4.2 20:33:11 10° SSE 20:37:13 36° E 20:41:18 10° NNE
Resurs 01 Rocket 4.4 20:39:41 10° SW 20:42:19 15° W 20:44:56 10° NW
ERS-1 Rocket 2.9 20:38:17 10° SSE 20:43:16 81° ENE 20:48:17 10° N
USA 245 4.0 20:40:43 12° SE 20:44:15 37° ENE 20:47:32 10° N
Cosmos 2279 Rocket 4.1 20:40:08 10° N 20:46:21 65° E 20:52:32 10° SSE
Cosmos 2297 3.7 20:41:14 10° SSW 20:46:49 70° ESE 20:52:29 10° NNE
Meteor 1-21 Rocket 4.3 20:41:29 10° S 20:47:01 57° E 20:52:29 10° NNE
MOS 1-B 4.4 20:41:39 10° SSE 20:47:25 83° WSW 20:53:14 10° NNW
Okean-O 2.6 20:46:09 10° SSE 20:50:31 82° ENE 20:54:56 10° N
Cosmos 1812 4.3 20:50:56 10° NE 20:52:41 14° ENE 20:53:43 12° E
Cosmos 1656 Rocket 4.2 20:47:31 10° SW 20:53:01 62° WNW 20:58:28 10° NNE
Cosmos 1378 Rocket 3.4 20:48:53 10° S 20:53:09 75° E 20:57:27 10° NNE
COSMOS 2406 4.1 20:49:49 10° NW 20:55:18 47° WSW 21:00:45 10° S
Okean O Rocket 2.0 20:52:56 10° S 20:57:14 64° WSW 21:01:37 10° NNW
Cosmos 990 Rocket 4.4 20:52:37 10° S 20:57:24 41° ESE 21:02:15 10° NE
Cosmos 1025 Rocket 3.6 20:54:32 15° SSE 20:57:44 37° E 21:01:46 10° NNE
CZ-4B R/B 4.3 20:55:40 10° SSW 21:00:41 40° W 21:05:50 10° NNW
CZ-4 R/B 4.2 21:05:41 10° WSW 21:06:42 11° W 21:07:42 10° WNW
In-Cosmos 22 Rocket 4.3 21:04:11 10° S 21:10:01 88° WNW 21:15:48 10° N
Cosmos 2082 Rocket 4.4 21:06:38 10° NW 21:10:47 21° W 21:14:54 10° SSW
Cosmos 1503 Rocket 4.3 21:11:40 10° SSW 21:16:48 67° WNW 21:21:56 10° NNE
Cosmos 2369 Rocket 2.6 21:16:26 10° SW 21:22:05 65° WNW 21:27:46 10° NNE
Cosmos 783 Rocket 4.5 21:18:38 10° NNW 21:23:56 89° WSW 21:27:21 22° SSE
Cosmos 1354 Rocket 4.1 21:21:05 10° SSW 21:26:17 78° WNW 21:31:32 10° NNE
ASTEX 1 3.3 21:23:48 10° N 21:28:41 78° E 21:32:10 19° S
SAR-Lupe-2 3.5 21:29:36 32° SSE 21:31:08 77° ENE 21:34:44 10° N
DELTA 2 R/B (1) 3.7 21:29:09 10° WSW 21:34:27 49° SSE 21:38:43 16° E
ISS -1.4 21:31:56 10° NW 21:34:36 21° N 21:37:17 10° ENE
Cosmos 2297 Rocket 4.4 21:32:12 10° NNE 21:35:09 14° NE 21:38:06 10° ENE
Ariane Rocket 2.9 21:32:58 25° SSE 21:35:55 79° ENE 21:40:59 10° N
COBE Rocket 3.9 21:34:06 10° NNE 21:38:38 51° E 21:40:36 30° SSE
Tiangong -1.1 21:35:59 10° SW 21:38:13 31° SSW 21:38:13 31° SSW
Cosmos 1869 4.3 21:36:18 10° NNW 21:39:36 35° W 21:41:51 17° SSW
Okean 2 Rocket 3.5 21:35:58 10° NNW 21:40:16 59° W 21:42:58 22° SSW
Cosmos 2098 Rocket 4.4 21:38:22 10° NNE 21:40:39 17° ENE 21:40:46 17° E
CZ-4C R/B 1.6 21:39:51 10° SW 21:44:00 88° NW 21:49:15 10° NE
Cosmos 44 3.2 21:44:47 10° SW 21:49:03 72° NW 21:53:28 10° NNE
Cosmos 1515 3.7 21:49:26 10° N 21:51:23 36° NE 21:51:23 36° NE
Okean 1 Rocket 3.6 21:49:58 10° NNW 21:54:14 54° W 21:56:28 26° SSW
Cosmos 1975 Rocket 3.3 21:53:28 40° SE 21:54:23 47° E 21:58:32 10° NNE
Nadezhda 4 Rocket 4.2 21:51:05 13° SSW 21:56:50 72° W 22:03:11 10° N
Terra 4.0 21:58:23 10° SW 22:01:49 20° W 22:05:17 10° NW
Cosmos 2228 3.9 21:58:42 10° N 22:02:33 33° ENE 22:03:10 31° E
Cosmos 2285 Rocket 4.1 21:59:35 11° SSW 22:05:45 82° WNW 22:12:13 10° NNE
Cosmos 1455 Rocket 2.9 22:01:30 10° N 22:05:50 90° W 22:07:03 47° S
Cosmos 1867 3.5 22:02:46 20° SSW 22:06:31 70° ESE 22:11:57 10° NE
SPOT 3 Rocket 4.2 22:04:08 24° SSW 22:07:02 49° W 22:12:06 10° NNW
Cosmos 2195 Rocket 4.4 22:03:24 24° S 22:07:18 89° W 22:13:35 10° N
BREEZE M DEB (TANK) 2.4 22:04:12 10° WSW 22:09:12 83° NNW 22:10:09 37° NE
BREEZE-M DEB (TANK) 4.5 22:04:03 10° W 22:14:57 51° NNW 22:18:27 10° ENE
Cosmos 2026 Rocket 3.9 22:12:16 29° S 22:15:33 89° E 22:21:39 10° N
Cosmos 1898 Rocket 3.4 22:16:18 35° SSW 22:18:32 81° ESE 22:23:48 10° NNE
Iridium 82 4.5 22:17:46 10° N 22:20:46 65° NE 22:20:46 65° NE
Cosmos 1818 4.4 22:16:38 10° NW 22:21:39 39° WSW 22:23:29 30° SSW
PSLV R/B 4.5 22:22:10 32° WSW 22:22:18 33° W 22:25:10 10° NNW
Cosmos 1812 3.9 22:23:20 10° NNW 22:26:00 25° W 22:26:19 25° WSW
Cosmos 1538 Rocket 4.2 22:20:59 10° NNW 22:26:19 68° WSW 22:28:01 43° S
USA 81 3.9 22:25:23 43° S 22:27:12 89° E 22:32:29 10° N
ARIANE 5 R/B 3.6 22:30:39 33° E 22:31:17 35° ENE 22:35:19 10° N
Cosmos 1553 Rocket 4.2 22:27:37 10° N 22:33:51 61° E 22:35:55 41° SE
BlueWalker 3 3.6 22:32:17 10° NW 22:35:29 28° NNE 22:36:56 21° ENE
Cosmos 1092 Rocket 4.2 22:35:06 28° SSW 22:38:34 69° W 22:44:53 10° N
CZ-4C R/B 3.6 22:43:38 10° NNE 22:46:39 52° NE 22:46:39 52° NE
DELTA 2 DEB (DPAF) 3.8 22:43:25 10° N 22:47:20 72° WNW 22:47:30 70° W
Cosmos 1536 Rocket 4.1 22:48:20 45° E 22:48:20 45° E 22:52:17 10° NNE
Cosmos 1656 3.5 22:47:10 52° S 22:48:28 74° ESE 22:54:01 10° NNE
RESURS DK-1 2.8 22:48:40 10° NNW 22:52:30 50° ENE 22:52:30 50° ENE
Cosmos 1544 Rocket 3.4 22:51:58 10° N 22:56:21 86° W 22:56:31 82° SSW
Cosmos 2058 3.6 23:01:15 40° ENE 23:01:15 40° ENE 23:04:16 10° NNE
Cosmos 1400 Rocket 3.0 22:59:46 10° N 23:03:02 63° N 23:03:02 63° N
Meteor 2-20 Rocket 4.2 22:57:45 10° N 23:03:47 83° E 23:05:05 56° SSE
USA 215 4.3 22:58:47 10° E 23:04:51 42° NNE 23:10:56 10° NW
DNEPR-1 R/B 4.1 23:05:05 10° NW 23:08:46 44° WSW 23:08:46 44° WSW
Cosmos 1782 3.7 23:06:41 10° N 23:09:26 38° NE 23:09:26 38° NE
Cosmos 2112 Rocket 3.9 23:06:21 10° NNW 23:11:39 81° ENE 23:12:22 67° SE
ISS -2.2 23:08:26 10° NW 23:10:32 34° NW 23:10:32 34° NW
Cosmos 1937 Rocket 4.4 23:14:20 27° WSW 23:16:38 43° WNW 23:21:31 10° N
Cosmos 2098 Rocket 4.3 23:15:49 10° NW 23:18:12 25° WNW 23:18:12 25° WNW
Cosmos 2297 Rocket 2.2 23:14:32 10° NNW 23:20:12 74° ENE 23:21:13 59° SE
DELTA 2 R/B (1) 3.8 23:15:04 10° W 23:19:24 50° SW 23:19:24 50° SW
ALOS 2 2.7 23:22:00 64° ENE 23:22:00 64° ENE 23:26:15 10° N
Cosmos 1726 Rocket 4.4 23:17:45 10° N 23:22:07 41° ENE 23:22:11 41° ENE
Cosmos 1680 Rocket 3.5 23:16:59 10° NNW 23:22:15 69° WSW 23:22:44 64° SW
PSLV R/B 4.2 23:20:20 10° NNE 23:24:32 50° E 23:24:32 50° E
Cosmos 1980 Rocket 3.6 23:28:23 24° E 23:28:23 24° E 23:32:20 10° NE
Lacrosse 5 rocket 3.6 23:25:41 10° NNW 23:28:40 20° NNE 23:31:05 12° ENE
Cosmos 1697 Rocket 2.7 23:32:02 59° ESE 23:32:17 60° ESE 23:37:52 10° NNE
MetOp-A 4.2 23:33:09 43° WNW 23:33:09 43° WNW 23:36:04 10° NNW
Cosmos 2360 4.3 23:33:06 50° SW 23:34:35 72° WNW 23:40:18 10° NNE
Cosmos 1892 Rocket 4.2 23:39:40 45° ENE 23:39:40 45° ENE 23:43:09 10° NNE
Spot 1 4.5 23:37:49 10° NNE 23:42:05 57° ENE 23:42:05 57° ENE
Meteor 2-3 Rocket 4.0 23:46:45 51° ESE 23:47:18 53° E 23:52:54 10° NNE
GEOS 3 Rocket 3.5 23:45:48 10° NE 23:51:06 89° ESE 23:51:47 69° SW
Cosmos 1125 Rocket 3.9 23:52:54 48° E 23:52:54 48° E 23:57:45 10° NNE
Cosmos 2227 Rocket 2.4 23:47:21 10° NNW 23:53:00 63° ENE 23:54:06 52° ESE
Cosmos 494 Rocket 4.1 23:49:25 10° NNW 23:54:33 60° WSW 23:54:34 60° WSW
